Wind_Speed
9 8 8 8 8 8 8 8 8 9 9 9 9 10 10 11 11 11 11 11 11 11 12 13 13 12 12 13 15 16 18 18 17 13 12 11 6 5 10 9 9 11 13 14 13 14 13 12 12 12 10 7 7 6 6 7 6 5 6 6 6 6 4 3 1 3 3 4 6 3 2 4 4 3 2 3 7 2 3 4 4 4 3 7 13 20 23 23
9 9 9 8 9 9 9 9 9 9 9 9 9 10 10 11 11 11 11 11 11 11 12 13 12 12 13 13 15 16 17 18 18 16 12 11 7 4 9 9 11 13 16 14 15 16 12 11 12 11 9 6 6 5 6 6 6 7 6 5 8 6 2 6 5 6 4 4 4 3 2 4 4 3 4 5 4 6 6 5 7 6 6 12 16 20 23 23
8 9 9 9 9 9 9 9 9 10 9 9 9 10 11 11 12 11 12 12 12 11 12 12 12 13 13 13 15 14 16 18 16 12 10 11 6 4 5 9 14 17 18 14 14 15 11 10 11 11 9 6 6 6 6 6 6 8 7 6 7 4 4 3 3 3 4 6 5 5 4 5 4 2 5 6 4 7 7 4 5 8 10 13 15 18 22 22
9 9 9 9 9 9 10 10 10 10 10 10 9 10 11 11 12 12 12 12 12 12 12 12 12 12 12 13 13 13 14 15 9 5 11 8 6 6 5 10 17 20 17 11 11 14 10 9 11 10 10 7 6 6 7 7 6 7 7 9 5 4 4 0 2 3 3 5 7 6 5 7 4 3 6 5 8 7 10 8 9 9 11 13 14 16 19 19
9 9 9 10 10 10 10 10 10 11 10 10 10 10 10 12 12 13 13 13 12 12 12 12 11 11 12 12 12 12 11 8 3 11 7 5 6 6 6 12 19 20 15 10 11 13 10 10 10 10 9 7 7 7 8 9 7 7 7 12 9 5 5 0 2 2 3 6 7 7 7 6 4 5 7 7 8 2 7 9 10 9 11 12 13 14 16 16
9 9 10 10 10 11 11 11 11 11 11 11 11 10 10 11 12 13 13 13 13 12 12 11 10 11 11 11 12 10 9 3 6 7 1 4 5 4 8 15 20 18 13 10 11 12 10 11 10 9 8 8 8 8 9 10 8 8 8 10 10 8 7 2 1 3 4 7 8 7 7 5 6 9 5 6 7 3 3 4 4 8 12 12 13 14 15 16
9 9 10 11 11 11 11 12 12 11 11 11 11 11 11 11 12 13 13 13 13 12 12 11 10 10 11 12 11 9 12 7 4 4 3 3 3 6 12 17 20 15 12 12 12 11 10 12 11 9 8 8 8 9 8 9 10 10 9 9 8 8 9 7 6 6 6 8 8 7 8 7 9 8 2 5 8 1 3 4 6 8 13 13 12 13 15 15
9 10 11 11 11 12 12 13 12 12 12 11 11 11 11 12 12 13 13 13 13 12 12 10 9 8 10 12 9 9 11 4 7 4 2 2 5 12 16 17 18 13 12 13 12 11 10 11 11 8 8 8 6 8 7 7 11 12 12 9 6 7 8 8 7 8 8 8 7 9 10 9 10 9 5 8 8 2 3 5 8 9 12 13 12 14 14 13
9 10 11 12 12 13 13 13 13 13 13 12 12 11 11 11 13 13 13 13 13 13 12 10 8 6 7 9 10 8 3 6 8 4 1 6 11 16 17 16 16 13 11 13 10 10 9 9 11 9 7 6 3 7 8 8 8 9 12 11 9 9 8 8 9 9 8 7 7 10 11 10 10 7 8 12 8 3 4 6 9 11 11 12 12 13 12 12
9 10 11 12 13 13 13 13 14 14 13 13 13 12 12 12 14 14 14 14 14 14 12 11 6 4 8 9 11 7 4 7 6 6 7 11 15 17 16 14 15 13 10 10 9 11 8 6 8 6 6 7 4 6 9 9 5 2 8 11 10 11 9 9 9 8 8 8 9 10 11 11 8 6 9 11 6 3 6 9 10 11 11 13 13 12 11 11
10 10 12 13 13 14 14 14 14 14 14 14 14 13 13 13 14 15 15 15 15 14 13 10 4 3 9 9 10 5 6 5 3 7 9 13 16 17 15 13 14 12 9 8 8 9 8 5 5 4 4 4 5 8 9 11 8 5 7 9 10 12 11 11 11 9 8 8 9 11 12 12 8 9 12 8 8 5 7 9 11 12 11 13 13 11 10 10
10 11 12 13 14 14 14 14 15 15 15 15 15 14 14 15 16 17 17 16 16 13 12 8 1 3 9 9 11 5 4 4 4 6 10 13 15 14 12 12 12 9 7 7 8 7 6 5 6 9 4 2 6 6 6 10 10 8 8 9 11 13 13 14 13 10 9 8 6 7 9 12 11 13 16 8 7 8 9 8 10 11 9 10 11 10 9 9
11 11 12 13 14 15 15 15 15 15 16 16 16 15 15 16 17 17 16 16 14 11 10 4 3 5 8 7 7 3 2 4 6 7 10 13 13 10 10 11 10 7 5 4 4 5 6 5 8 11 5 6 6 2 1 7 8 9 9 9 9 10 12 14 12 9 10 7 3 4 7 11 13 18 19 10 8 10 10 10 10 10 9 7 9 10 10 11
11 11 12 13 14 15 16 15 15 16 16 16 17 15 15 17 17 16 14 12 10 8 6 4 5 5 7 7 3 6 5 5 7 10 12 13 13 10 10 10 8 6 5 4 2 3 5 6 8 10 6 8 5 2 4 8 6 9 10 8 7 9 7 12 11 8 9 6 6 9 7 8 11 19 17 9 9 11 11 11 11 11 12 10 9 9 11 11
10 11 12 13 14 15 16 16 16 16 17 17 17 15 15 16 15 12 9 8 7 4 4 6 7 6 6 8 4 7 9 7 9 13 13 14 14 11 11 10 8 7 6 5 4 3 5 6 8 8 6 8 6 4 8 8 7 8 8 7 8 7 4 11 11 9 7 5 8 11 7 9 10 11 13 9 10 12 12 12 11 11 13 14 12 10 10 10
10 11 12 13 14 15 15 16 16 17 18 17 15 14 15 15 11 8 6 4 3 3 8 6 9 8 6 3 5 6 10 10 12 15 14 14 14 12 12 11 9 8 7 6 4 4 6 7 8 8 6 8 7 7 7 7 7 8 7 8 7 8 6 8 10 10 7 2 9 10 7 10 4 8 10 8 11 12 12 13 12 12 11 12 12 11 10 10
10 11 11 13 14 15 15 16 16 17 17 17 15 13 13 12 7 4 3 1 2 5 8 6 5 8 7 1 4 6 10 9 10 15 15 15 14 11 11 10 10 10 9 7 6 6 7 7 7 7 7 7 7 8 8 7 7 7 8 8 8 9 6 5 8 10 7 5 9 9 8 11 2 9 9 9 10 13 13 14 14 13 10 10 10 10 10 9
11 11 12 12 14 15 15 16 16 16 17 16 13 12 10 10 6 3 3 4 5 6 8 7 4 6 6 7 6 4 10 9 9 14 14 14 15 13 11 10 9 10 9 8 8 8 7 7 7 6 7 7 8 9 8 8 8 8 9 8 8 8 8 7 4 8 9 7 8 8 8 12 10 5 7 9 10 13 14 14 14 13 12 11 10 10 10 11
12 12 12 12 13 15 15 16 16 16 17 14 10 9 8 6 6 8 9 8 7 6 4 5 8 4 2 8 6 3 9 10 9 12 12 13 15 15 13 11 10 11 10 7 9 10 7 6 7 7 8 9 11 11 10 13 10 8 8 7 10 9 8 11 4 7 5 7 8 9 9 11 12 12 10 10 10 12 14 14 14 12 11 12 12 12 12 13
12 12 12 13 13 15 15 16 16 16 16 14 12 8 5 4 5 6 8 9 10 10 9 3 10 7 1 4 6 6 7 9 9 11 12 12 14 15 13 11 11 10 9 7 8 9 8 7 8 8 10 11 13 13 14 16 9 8 10 7 9 10 8 11 6 6 3 6 7 9 10 11 11 12 12 10 11 11 13 14 14 12 12 12 11 12 12 11
12 12 13 13 14 15 15 16 16 15 13 12 12 9 4 4 4 1 1 8 13 14 14 9 9 11 7 2 3 5 5 10 12 10 12 13 14 14 11 12 11 9 10 10 7 7 8 8 9 11 12 12 11 12 14 14 7 5 10 8 8 10 9 9 4 6 5 5 8 11 11 12 12 11 12 12 11 12 12 14 15 15 15 11 11 16 14 11
12 12 13 13 14 15 16 16 16 14 10 7 10 10 4 7 5 5 5 8 9 12 13 11 10 10 8 7 5 4 6 10 12 11 13 13 14 12 11 12 12 9 11 11 7 6 8 9 11 12 11 10 7 7 9 10 7 7 9 9 9 9 8 6 6 5 5 4 8 11 10 10 10 10 12 14 13 11 12 15 14 15 17 13 16 16 9 8
12 12 13 13 14 15 15 15 14 12 8 7 10 8 4 5 4 6 6 7 8 10 11 10 10 10 10 11 10 9 9 11 11 13 15 14 13 12 11 13 12 11 12 12 9 7 7 9 13 14 11 8 7 6 7 7 7 8 9 9 10 10 11 9 5 3 5 6 8 10 8 9 9 10 12 14 15 12 13 16 15 15 16 15 17 12 10 11
13 13 13 13 15 15 14 14 13 9 7 8 10 8 4 4 5 7 6 6 7 6 7 6 7 9 7 5 9 13 12 11 11 12 17 16 12 11 11 12 13 12 11 13 13 10 11 6 6 11 10 8 9 9 9 8 7 10 11 11 10 11 14 12 5 5 6 7 10 11 9 10 11 13 14 13 15 15 14 15 15 15 15 16 17 14 15 17
13 13 13 14 15 14 12 12 8 3 5 7 9 6 2 3 4 7 6 6 5 5 6 6 6 5 4 4 7 11 11 11 13 12 16 17 14 10 10 9 9 12 12 15 14 11 14 5 4 6 8 8 11 10 11 10 7 9 11 14 14 13 16 14 9 8 8 8 11 12 10 8 11 16 15 13 15 16 14 14 15 15 15 15 15 15 15 16
13 13 13 13 15 13 9 6 2 2 6 6 2 2 1 3 4 6 5 5 5 7 9 8 7 5 7 7 8 9 10 11 13 13 14 17 16 11 9 8 7 11 13 13 10 7 11 8 9 9 9 9 12 10 11 11 7 8 8 11 14 13 14 14 12 11 8 8 6 6 8 7 8 12 11 11 12 13 12 13 14 13 13 13 12 14 14 13
13 13 13 13 14 12 7 5 5 6 5 1 3 1 2 3 4 4 4 5 4 7 9 7 6 5 6 7 9 9 4 6 10 13 12 14 16 11 10 10 8 10 9 8 8 6 9 9 7 8 10 10 11 9 11 12 8 8 5 4 8 10 13 13 13 11 8 9 6 6 9 9 8 10 8 10 11 10 11 13 12 10 10 11 11 13 14 14
13 13 13 13 12 9 8 10 10 7 2 4 1 2 2 4 4 4 4 4 3 5 5 5 5 3 4 5 11 9 1 6 8 11 13 14 15 11 10 12 10 11 10 7 7 7 10 12 8 9 10 8 9 8 10 11 10 9 4 2 6 9 11 11 11 10 9 10 9 9 11 9 8 9 9 11 11 11 13 12 11 8 8 7 9 12 12 15
13 13 12 13 11 6 7 10 10 8 4 4 3 3 4 5 4 4 5 3 4 4 3 4 5 7 7 6 11 10 5 6 4 7 14 15 15 12 9 12 11 12 12 10 9 6 8 11 10 10 10 8 9 9 8 9 9 9 5 4 7 8 9 9 9 9 9 10 11 11 11 9 8 7 8 10 9 9 8 5 6 5 5 5 7 10 12 15
13 13 12 13 10 5 5 10 13 11 6 4 4 4 5 5 4 5 5 2 4 5 3 5 5 8 10 8 10 10 10 9 4 7 11 12 15 14 8 9 11 11 12 12 12 9 4 3 4 8 9 8 9 10 10 11 10 7 4 6 8 8 9 9 7 8 9 9 11 14 15 12 8 6 5 3 2 2 3 4 4 4 3 4 5 7 11 17
14 13 12 11 9 7 6 5 5 7 5 4 5 5 6 5 4 6 4 2 3 6 6 6 6 6 9 9 7 10 12 10 8 10 10 9 13 13 8 8 8 9 10 11 12 13 9 7 5 7 10 9 9 9 10 11 11 9 6 7 8 7 8 7 7 8 8 9 10 13 16 14 9 7 1 3 2 2 2 3 4 2 2 2 5 7 10 13
15 14 13 12 11 11 11 4 3 1 2 4 5 5 6 5 6 6 3 3 3 5 5 5 6 5 7 7 5 8 10 10 10 11 10 10 11 12 11 9 7 8 10 9 10 12 12 11 9 9 11 11 9 8 8 8 9 10 8 8 8 6 6 7 7 7 7 9 10 9 10 10 8 7 2 5 3 3 3 1 1 1 2 1 4 6 5 4
17 16 15 14 13 15 16 11 6 5 4 5 6 6 5 5 6 4 3 4 2 3 2 2 3 4 5 6 8 8 7 8 12 11 12 12 11 12 15 15 12 11 8 8 10 9 10 11 12 11 10 11 11 8 7 8 9 11 9 8 8 6 7 7 7 7 8 9 10 7 6 7 6 5 1 5 4 5 4 2 2 1 1 0 2 2 2 3
18 17 16 15 15 16 15 12 9 7 6 6 6 6 6 7 4 2 3 3 4 3 2 3 3 6 8 9 6 6 7 8 12 11 11 12 10 10 13 16 17 13 8 8 8 9 10 9 12 12 9 11 14 12 9 8 9 11 10 9 9 7 7 6 6 6 6 7 9 8 6 8 5 1 4 5 5 5 4 4 3 2 2 1 0 1 3 4
15 11 11 12 14 15 15 12 9 6 6 6 6 6 6 6 4 4 3 2 4 1 2 3 5 7 9 8 4 4 5 4 9 11 10 10 9 9 10 13 17 14 10 8 7 8 12 9 9 13 11 12 15 14 12 10 8 9 9 9 9 7 6 6 6 5 4 5 6 6 6 6 2 5 4 3 6 5 3 4 3 3 3 2 2 4 3 2
9 5 7 10 11 10 12 13 10 8 7 6 6 7 6 4 2 0 1 3 2 3 3 4 7 7 7 7 7 7 6 4 8 9 9 10 10 11 11 10 14 16 12 8 6 6 9 7 7 12 13 13 13 13 13 11 7 5 8 9 8 8 8 7 7 6 4 6 6 6 7 5 3 6 4 4 6 6 4 4 5 3 4 4 5 5 4 4
8 5 6 8 7 7 10 12 11 9 7 6 7 6 4 2 1 4 3 3 3 3 6 6 5 5 6 6 8 9 9 7 8 8 7 9 9 10 12 11 12 17 15 11 7 5 6 6 7 11 13 12 12 12 14 14 11 6 6 7 7 8 8 6 6 5 6 8 7 7 10 7 5 3 1 1 3 5 4 5 5 3 3 5 6 7 7 7
9 6 4 6 6 7 10 12 11 9 6 6 7 7 4 0 1 2 3 3 4 3 6 6 2 2 6 5 6 8 7 6 8 8 7 7 5 4 8 9 9 13 15 14 8 4 5 6 7 11 12 11 11 10 11 13 15 12 6 4 5 7 7 6 6 6 7 8 7 8 11 7 2 1 3 3 2 4 5 5 5 3 4 5 6 8 9 9
9 5 4 6 8 8 10 12 10 8 6 6 6 6 5 2 1 1 2 3 4 4 5 5 2 3 5 6 5 4 5 6 6 6 6 7 4 4 6 5 6 9 12 13 9 4 5 6 6 10 11 9 9 8 8 10 13 13 10 6 6 5 5 5 5 6 7 8 7 8 9 2 4 3 4 4 3 3 3 4 4 3 5 5 5 6 8 7
8 4 5 8 9 9 10 10 8 6 6 7 4 2 3 3 2 1 2 3 4 4 4 4 2 4 5 5 6 3 3 6 5 4 5 5 3 1 4 3 4 7 9 10 9 5 5 5 5 7 9 8 7 8 9 9 10 11 9 8 7 6 5 6 5 5 6 7 6 7 5 1 4 4 3 6 5 3 4 4 4 4 7 9 8 10 9 8
6 4 4 9 10 10 9 7 6 6 6 5 3 1 2 0 1 3 2 2 4 4 3 5 5 4 4 4 6 4 3 6 6 5 5 4 2 2 2 5 5 5 7 9 9 6 4 6 7 5 6 8 8 9 13 12 9 10 9 9 10 8 7 7 6 6 6 6 7 6 3 1 3 3 3 5 5 4 4 4 3 5 9 11 12 12 11 10
5 3 5 11 11 9 7 5 4 5 5 2 1 0 4 1 3 2 2 4 5 4 3 5 6 5 5 5 5 4 4 7 7 5 3 1 3 3 1 4 8 5 5 5 6 4 3 5 7 7 7 7 7 7 9 8 8 9 9 9 10 9 8 8 6 6 7 6 7 7 4 3 3 3 3 5 6 5 5 5 5 7 9 12 12 11 11 10
4 2 6 11 11 8 6 4 5 5 3 1 1 1 3 2 4 2 3 5 5 4 4 4 5 5 6 4 5 5 4 5 6 5 3 3 2 4 2 2 5 5 5 3 1 2 3 5 7 7 7 8 8 7 5 6 7 8 8 8 9 9 8 7 3 4 7 5 4 5 4 2 4 3 4 6 8 9 9 9 8 8 9 11 12 10 10 10
4 2 4 9 10 8 5 4 4 5 3 2 3 4 2 3 3 3 4 4 3 4 4 5 4 4 4 3 4 7 4 4 5 4 4 3 4 2 4 3 2 1 2 2 0 3 4 5 7 6 6 8 8 6 7 8 8 8 8 7 8 9 9 7 3 3 8 6 3 4 3 1 3 4 6 9 10 9 10 10 10 9 9 9 9 9 9 9
4 3 4 7 8 7 5 4 3 2 4 3 3 4 3 3 2 4 5 1 1 3 3 5 4 3 5 5 5 8 5 3 4 3 3 1 3 3 4 5 4 4 5 4 0 4 5 4 5 7 8 7 5 3 4 6 6 7 8 1 6 11 11 7 5 6 8 7 7 5 2 1 2 5 8 10 10 9 10 10 10 9 9 9 9 9 9 8
3 4 4 5 6 5 3 2 3 2 3 4 2 3 4 4 4 2 5 2 2 4 3 4 4 3 6 7 5 8 7 5 4 4 3 2 2 4 3 4 6 7 7 6 4 3 5 6 7 9 6 3 2 2 3 5 6 8 5 3 2 9 8 5 7 7 5 5 5 1 5 1 1 5 7 7 9 9 9 10 9 9 8 9 9 9 9 8
2 3 4 4 4 4 4 4 4 1 1 3 2 2 4 4 4 4 5 3 2 4 4 3 4 4 5 6 4 6 7 5 5 4 4 5 2 5 4 1 4 7 7 7 8 4 4 5 8 11 8 5 4 2 1 2 4 7 8 3 3 2 2 3 6 5 5 5 4 5 11 6 2 8 9 8 9 9 9 9 9 8 8 8 9 9 9 9
2 1 4 2 2 3 3 4 3 2 3 3 1 1 4 5 4 4 4 3 3 3 4 3 4 5 4 3 4 5 6 5 3 2 3 5 3 3 3 3 6 4 3 5 10 6 1 4 7 10 10 8 6 4 1 2 2 1 3 4 3 5 5 1 1 5 6 3 2 4 11 11 4 6 8 9 9 9 9 9 8 8 8 9 9 9 10 10
3 1 4 0 1 2 4 2 1 3 4 2 2 3 4 4 4 4 3 3 3 3 3 3 5 7 5 3 5 4 3 3 2 1 1 3 3 1 1 3 5 4 2 4 5 4 2 3 5 7 9 8 8 8 4 2 4 1 3 6 6 5 6 6 7 8 6 3 5 7 10 10 6 5 6 7 7 8 8 8 9 9 9 9 9 10 10 10
2 1 3 2 2 3 5 4 3 4 4 2 3 4 4 3 3 3 3 2 2 3 4 4 5 6 4 4 6 3 0 2 1 1 3 3 2 1 2 0 0 4 5 4 2 3 1 2 4 6 7 6 5 6 7 8 6 2 8 11 11 8 7 7 9 9 7 4 4 6 7 7 5 5 7 7 7 8 8 9 10 10 9 9 10 10 10 10
4 2 3 3 4 3 3 4 3 3 5 3 3 4 4 4 3 2 2 2 2 3 3 4 3 3 3 4 7 3 1 2 2 1 3 4 3 2 1 3 3 0 3 3 2 1 3 3 2 1 5 3 3 5 5 6 6 7 11 13 12 10 7 7 8 9 8 7 4 2 4 5 4 5 7 8 8 9 10 11 10 9 10 10 10 10 10 10
4 3 5 3 3 3 3 3 2 2 3 2 1 3 2 1 2 2 2 1 4 2 0 2 3 3 3 2 1 3 3 4 4 4 4 3 3 3 2 2 3 3 2 3 3 2 2 2 2 3 3 2 3 5 5 4 5 4 7 11 10 8 8 6 8 10 10 8 5 3 4 4 4 5 6 8 10 10 10 10 8 8 10 10 10 10 10 10
Wind_Direction
334 334 332 330 328 325 324 321 321 319 318 318 317 317 314 312 309 309 309 305 308 307 306 307 307 314 313 314 312 314 320 313 303 278 249 247 251 228 242 243 218 194 172 178 183 183 187 199 199 195 208 198 216 225 183 215 237 224 234 237 241 235 254 313 149 55 3 75 68 16 20 309 318 358 335 195 209 172 144 179 109 73 88 116 127 139 146 153
333 333 330 328 325 323 322 320 318 316 316 316 315 315 313 310 308 306 306 306 305 305 307 309 314 317 313 311 310 318 320 304 286 272 245 234 245 252 244 222 200 180 168 184 190 188 190 192 190 193 209 200 200 198 175 203 220 227 234 233 241 238 11 4 1 28 349 359 23 311 339 311 304 359 315 273 204 158 173 172 138 131 112 109 122 138 148 158
333 331 329 327 324 322 320 318 315 314 313 314 314 313 312 309 308 305 305 306 305 308 309 312 317 317 316 312 311 322 319 298 280 256 208 212 247 290 252 204 188 175 175 193 193 193 200 193 188 197 213 211 197 186 188 195 202 229 240 235 241 280 3 21 353 5 343 338 319 299 333 282 279 329 284 301 279 196 158 146 172 157 141 132 138 149 154 163
333 328 328 325 322 320 318 316 312 312 311 312 313 311 311 308 306 305 304 304 304 306 308 313 317 320 321 310 313 325 309 288 272 151 158 209 271 294 252 195 182 178 189 211 204 203 212 199 192 208 222 218 201 201 212 195 196 224 231 243 259 351 318 249 37 347 339 317 299 305 295 267 288 302 269 283 269 216 145 171 206 172 153 146 146 153 159 167
331 326 326 321 320 319 316 314 311 311 311 311 311 309 309 306 305 304 303 303 303 302 303 310 316 324 322 308 314 314 294 282 126 116 142 245 288 281 226 185 177 179 197 225 217 211 219 211 199 212 229 228 200 202 225 204 211 240 234 253 279 319 284 169 70 308 317 291 281 279 269 288 316 270 265 272 277 267 140 181 196 167 152 151 157 162 165 172
330 326 323 320 319 318 315 314 311 310 310 309 310 309 307 304 303 302 302 302 300 297 298 306 317 325 319 306 305 289 269 280 107 118 211 275 280 250 181 174 170 176 202 226 217 209 213 210 202 209 226 233 208 205 228 208 213 248 239 246 261 266 265 283 284 268 289 275 270 276 282 309 285 262 263 259 275 347 107 168 181 154 149 162 170 169 172 177
329 325 321 321 318 317 316 314 312 310 309 311 310 309 307 303 301 301 300 299 296 295 295 301 316 321 318 308 293 254 247 261 117 117 291 264 234 161 157 164 164 178 210 217 205 202 206 204 205 211 220 231 217 213 223 210 215 242 251 246 245 248 259 273 279 271 269 267 272 281 281 277 259 263 269 241 257 290 100 157 187 155 148 165 176 177 178 178
330 326 321 319 317 318 315 314 313 311 311 311 310 308 307 304 301 300 298 296 293 293 292 297 314 320 322 317 292 244 240 240 105 107 289 199 156 145 150 159 168 188 210 208 200 201 206 204 212 215 223 236 217 208 209 215 224 233 249 257 251 250 255 261 263 260 259 262 267 262 261 258 252 267 278 250 245 188 122 177 177 156 151 162 178 185 179 177
330 326 321 318 317 317 314 315 313 312 313 312 310 308 307 304 300 298 295 293 290 290 290 293 305 316 315 303 282 266 223 95 95 105 142 151 150 149 154 163 180 196 202 204 202 207 208 203 215 222 249 263 216 211 210 217 229 224 240 251 249 249 248 251 251 250 255 253 253 254 253 250 245 260 256 239 234 145 162 197 173 164 161 159 177 187 177 178
329 326 321 317 316 315 314 314 313 313 313 310 310 308 307 303 298 298 294 291 288 287 286 289 301 311 297 277 266 272 107 100 103 118 141 153 152 157 167 172 182 197 200 200 204 214 220 218 224 233 269 274 237 227 217 221 253 246 246 255 255 259 256 252 253 250 257 254 248 252 253 249 237 240 238 217 197 165 191 197 179 173 168 165 177 180 177 182
328 326 320 317 315 314 314 314 314 314 313 311 310 308 308 303 300 298 293 289 286 283 281 286 294 279 286 276 265 275 102 119 130 134 158 161 160 168 177 177 183 200 199 190 206 220 229 248 259 243 246 253 231 230 223 230 261 277 264 264 255 258 255 246 247 242 247 247 238 247 253 250 234 232 240 204 157 187 215 197 183 181 174 172 172 170 179 184
327 326 320 316 314 314 313 313 314 313 314 311 308 309 308 305 303 298 293 288 284 281 280 279 225 260 284 271 254 261 93 150 160 147 168 167 169 175 176 179 188 204 202 195 204 214 231 253 255 241 242 288 236 221 223 227 247 261 258 263 253 246 242 236 234 229 237 239 227 246 255 241 224 227 236 208 162 194 213 206 192 179 165 171 166 167 185 183
327 325 320 316 314 314 313 312 313 314 314 311 309 308 306 306 305 299 293 288 283 279 279 257 172 248 272 270 244 211 129 177 169 160 170 173 174 173 175 183 193 207 221 230 203 199 230 243 249 248 253 269 242 122 272 229 236 251 242 254 257 246 237 223 217 217 233 234 197 236 255 236 214 217 224 199 174 199 206 211 201 166 146 181 179 170 188 183
325 323 320 316 314 313 313 312 312 312 312 311 308 306 307 307 301 297 295 293 288 274 259 181 178 235 251 266 240 161 178 170 176 182 176 178 175 170 178 183 194 203 211 237 214 193 227 229 245 255 253 259 272 71 243 233 225 244 240 234 240 257 234 188 185 201 217 185 175 224 250 256 224 203 199 176 182 202 207 214 208 175 155 182 196 184 192 183
323 322 320 316 314 313 312 311 311 312 312 309 306 308 309 304 297 297 300 300 296 259 174 161 197 229 249 249 201 168 191 189 199 195 182 185 182 177 179 182 193 196 198 213 210 200 224 222 227 243 229 234 265 250 231 229 217 226 238 228 219 244 195 150 166 203 217 156 179 221 237 258 247 181 157 161 200 205 210 216 211 199 174 174 187 193 196 183
322 320 319 316 314 312 310 310 310 312 310 306 308 311 306 299 293 298 303 290 294 145 151 185 204 217 274 264 143 170 196 202 209 198 190 194 194 190 179 179 187 187 195 204 204 204 212 217 219 240 233 209 227 239 234 227 217 211 228 243 222 218 198 157 168 197 224 181 189 216 246 257 240 127 142 180 207 205 215 221 212 210 193 176 181 187 192 186
319 319 318 316 313 310 310 309 311 313 310 311 314 311 300 290 284 306 324 217 159 149 187 243 208 207 264 260 167 199 189 189 193 186 193 199 204 205 180 178 186 183 194 194 202 211 198 206 217 234 240 221 217 228 235 227 219 206 210 243 246 232 231 188 158 170 195 218 216 214 243 262 228 123 159 193 214 211 212 224 219 209 201 193 190 183 185 196
319 319 318 316 312 310 309 309 312 312 311 315 318 313 301 285 270 275 263 183 175 191 219 255 236 230 238 207 220 200 164 164 162 171 186 194 203 209 190 187 184 179 194 193 200 209 190 199 213 217 221 220 220 221 228 230 229 227 214 225 241 235 245 251 177 150 178 209 234 225 227 252 256 217 188 188 213 220 210 220 226 214 207 207 201 186 185 205
320 318 320 317 313 311 310 311 312 312 316 320 322 319 305 279 254 242 233 204 188 209 233 187 199 253 81 175 205 131 139 148 154 167 176 184 194 201 196 194 188 187 201 195 189 198 192 200 208 219 220 209 219 223 229 240 252 275 263 232 234 234 228 241 207 128 178 227 234 241 242 247 251 250 233 198 197 221 220 216 225 221 214 221 215 198 190 201
319 319 320 316 313 312 310 310 310 313 318 320 317 299 268 253 238 216 210 214 218 248 289 231 205 244 321 164 172 144 149 164 184 185 174 176 182 190 195 195 195 198 212 204 178 187 201 215 211 217 226 215 219 226 237 255 279 304 287 261 250 256 242 243 219 135 201 256 246 248 253 256 255 256 255 229 192 208 226 220 223 223 216 224 236 228 203 191
318 318 319 316 316 312 309 310 308 312 317 313 302 277 276 334 319 348 246 240 229 238 263 260 237 251 263 257 157 159 191 194 207 195 168 173 179 184 186 192 200 199 216 216 179 182 206 225 226 221 232 232 227 227 236 259 287 276 267 268 258 253 253 255 204 155 204 242 254 254 249 251 250 249 257 253 220 201 220 228 222 224 226 218 225 235 216 182
317 318 320 318 315 312 311 310 307 313 317 293 269 261 312 12 1 345 322 281 251 237 246 245 244 254 250 237 209 225 246 208 203 188 168 176 186 186 179 188 207 200 206 214 188 187 211 231 238 231 235 238 240 246 236 246 260 248 251 260 258 252 252 236 148 158 221 233 255 257 255 256 252 248 249 253 245 210 209 232 227 223 231 224 222 226 208 184
318 320 321 319 317 314 312 311 311 311 299 258 252 264 330 16 357 326 295 283 276 243 233 229 229 233 226 223 206 206 234 222 206 186 173 185 198 201 193 189 210 213 201 208 205 201 218 226 228 229 230 222 223 238 237 236 239 241 244 247 246 246 250 238 175 182 228 237 267 275 273 266 261 258 251 248 250 230 208 224 231 227 227 230 236 219 168 198
320 321 322 322 317 315 317 316 311 294 256 244 258 272 330 350 334 327 294 273 272 223 201 211 222 222 210 202 192 198 220 228 223 195 174 190 205 203 211 202 208 222 208 205 211 222 245 240 206 221 213 199 216 219 223 235 231 229 235 246 250 248 255 255 230 226 232 234 251 261 267 262 250 246 245 240 238 234 220 215 223 229 227 225 235 225 186 193
321 321 323 323 317 320 323 312 298 255 230 250 259 249 290 329 328 327 301 262 246 184 159 176 199 197 155 135 179 197 218 221 227 214 177 192 213 198 210 214 210 225 212 205 212 229 249 237 133 226 215 198 226 222 215 227 237 230 222 234 249 255 263 266 255 251 252 248 239 236 248 257 244 240 239 233 225 221 219 220 223 225 229 228 228 233 212 187
319 320 324 321 320 326 321 305 322 291 259 253 237 163 256 327 334 316 288 257 228 166 154 179 185 158 159 177 182 197 226 215 214 218 185 192 216 212 212 209 206 229 216 205 214 232 242 202 158 219 229 213 229 226 213 216 233 245 223 225 239 247 260 265 262 259 255 267 260 226 252 270 260 251 241 238 235 218 209 224 233 227 228 235 231 234 230 204
316 318 323 318 322 330 319 326 337 298 266 172 91 107 301 332 326 298 262 252 223 159 148 167 169 154 169 175 179 197 217 157 180 207 194 191 208 216 227 212 197 226 222 211 220 214 232 220 171 209 225 219 228 224 212 209 223 244 228 228 242 242 252 253 252 253 254 268 258 203 241 267 269 265 246 235 235 218 212 219 226 233 237 239 244 243 238 232
314 318 322 315 319 321 297 304 304 282 323 51 41 276 327 328 294 259 246 242 168 141 151 143 122 160 188 171 195 213 105 123 178 193 185 195 204 204 227 227 211 214 213 221 227 181 197 223 206 206 221 220 225 225 211 207 225 245 229 218 254 255 258 254 249 250 250 259 254 226 233 250 259 263 255 242 224 212 223 216 196 214 245 250 264 267 259 254
315 317 319 315 319 316 279 277 273 270 334 3 291 298 322 300 270 239 251 253 145 141 162 139 138 190 195 176 199 219 221 208 212 163 175 197 211 213 230 235 230 221 209 215 233 197 179 216 217 210 221 223 222 225 212 201 220 250 257 233 246 258 261 256 252 254 248 246 253 250 244 249 259 258 255 249 225 210 222 202 165 191 252 276 284 286 280 266
315 313 316 315 317 324 277 251 249 260 286 298 283 303 290 264 244 224 223 220 164 152 148 160 166 184 191 192 193 200 213 214 163 151 180 190 203 218 239 238 240 238 213 205 232 239 159 163 228 225 228 230 226 222 214 209 215 237 260 244 237 236 241 245 246 254 256 245 243 248 249 254 261 258 265 284 258 190 160 151 173 209 245 265 270 270 265 258
310 306 309 301 296 306 289 246 235 249 246 273 293 283 259 231 235 238 194 147 179 154 159 181 167 172 204 222 201 180 198 204 168 170 187 182 194 207 219 225 231 237 219 201 224 234 196 173 210 224 228 236 235 226 217 215 221 224 230 238 235 223 224 232 230 236 248 248 244 245 246 246 248 253 256 73 78 91 113 172 188 221 250 235 247 244 245 256
304 302 297 281 274 273 263 254 26 4 215 286 292 250 236 211 226 244 164 147 207 163 163 179 165 189 222 240 218 182 191 196 181 184 190 188 193 196 207 214 194 208 222 204 209 225 218 214 215 204 211 225 227 220 210 208 220 225 221 227 233 225 219 227 230 227 230 245 253 254 251 245 246 253 207 124 127 86 56 348 108 311 289 244 247 240 226 251
301 299 290 275 261 252 249 254 284 287 268 290 270 228 238 230 219 242 193 174 145 88 112 159 183 223 232 232 208 187 200 193 182 195 197 193 198 198 208 217 205 207 224 212 207 218 224 224 215 203 196 206 218 220 204 195 206 216 215 217 225 222 220 229 236 235 234 240 238 233 248 253 248 253 166 116 107 87 81 62 73 57 341 15 266 267 145 153
301 294 281 266 250 243 245 249 254 261 261 255 236 211 230 241 222 255 248 167 100 85 168 178 226 231 231 242 213 178 221 203 178 194 197 191 202 203 205 213 215 217 225 222 218 218 226 222 207 207 190 184 208 228 226 212 205 210 218 223 228 231 230 236 244 246 252 250 228 205 220 251 245 107 66 89 104 93 93 97 102 115 83 69 236 67 100 144
306 291 268 251 242 238 234 232 230 236 235 225 224 214 215 235 227 210 225 82 89 191 188 182 240 233 221 234 222 197 240 217 187 204 206 198 204 204 203 208 212 217 221 221 215 220 237 234 195 204 208 192 202 222 236 241 221 202 213 225 229 234 236 248 271 277 275 265 243 211 219 250 227 123 119 148 132 110 117 127 116 109 93 82 92 72 59 82
311 279 240 223 227 228 216 213 209 210 224 222 218 218 214 235 275 176 15 22 17 312 291 232 226 233 223 204 195 204 205 202 218 220 211 210 209 202 204 202 202 211 221 226 219 215 236 240 190 195 212 213 209 213 220 237 243 200 206 224 226 230 236 246 260 257 245 255 260 242 233 235 193 160 156 178 153 132 138 129 100 92 99 92 90 84 70 56
302 257 212 195 199 198 191 192 191 199 223 232 223 232 235 226 348 21 17 345 323 307 285 252 201 221 246 207 185 192 182 188 218 221 216 216 211 207 210 204 198 207 218 232 234 214 232 247 202 192 207 214 220 224 216 219 234 230 216 222 219 226 238 249 255 243 235 245 249 247 246 238 220 197 71 274 184 136 119 111 105 111 108 93 91 94 93 82
289 253 191 156 148 161 173 175 184 198 218 233 232 247 270 220 96 357 354 329 303 269 264 268 201 216 259 241 204 187 179 194 201 205 228 219 206 237 231 212 203 209 217 226 231 208 232 248 203 199 216 208 204 228 226 210 218 234 243 235 230 232 227 219 230 238 239 245 245 245 248 255 279 163 157 211 214 99 95 101 110 118 103 98 100 94 91 92
272 240 168 138 136 150 162 168 187 207 216 228 229 231 243 232 110 353 332 304 282 267 265 273 248 227 247 258 260 198 194 239 214 195 224 212 189 321 297 234 212 225 222 224 229 202 214 249 213 199 212 199 186 213 227 206 206 226 240 233 238 254 242 226 227 234 241 244 244 242 238 234 36 43 137 136 96 83 100 107 111 103 87 92 97 86 82 85
243 212 143 141 147 148 155 173 200 213 212 226 240 190 192 203 158 161 291 279 267 269 284 292 259 236 245 268 285 261 230 260 245 208 226 209 175 279 292 269 227 227 224 228 237 214 200 241 228 196 197 194 193 205 219 215 199 209 227 224 221 229 234 237 234 240 260 264 255 252 250 119 57 21 61 104 111 111 104 106 112 90 74 69 64 58 58 60
223 214 145 153 160 151 159 191 208 214 216 222 251 186 118 24 217 165 178 258 274 273 292 298 281 270 282 280 262 241 247 264 245 222 221 217 232 235 265 304 292 242 220 221 226 219 211 226 227 224 213 208 217 216 218 227 218 206 213 218 220 223 227 234 229 218 229 252 256 247 242 92 59 24 55 99 97 89 94 101 106 89 72 65 60 55 53 50
224 213 149 159 169 164 183 214 200 222 229 193 269 32 84 352 276 223 187 208 240 246 241 267 275 277 277 275 272 253 256 270 256 241 230 203 330 336 128 276 283 272 256 238 224 231 248 243 235 228 221 233 264 255 226 234 247 234 226 224 225 224 228 239 246 233 224 246 274 264 228 169 99 57 66 82 72 69 79 84 96 96 78 67 61 57 57 52
206 151 131 158 180 192 219 227 190 210 218 97 296 230 106 230 236 236 226 203 216 228 216 242 261 258 246 252 289 274 260 277 266 260 253 150 83 359 9 269 271 276 294 309 311 293 263 238 240 234 225 234 258 275 255 238 244 244 238 237 233 230 236 243 249 278 267 268 301 291 260 178 119 110 106 85 68 61 59 58 67 74 70 66 60 54 54 48
183 131 139 169 192 212 240 245 207 194 164 151 237 195 154 256 248 257 242 203 218 229 218 240 246 247 247 234 265 269 277 284 250 247 273 192 134 26 0 2 322 308 13 61 57 288 263 227 226 234 233 221 221 245 249 230 230 237 232 242 260 253 247 241 205 253 269 251 222 259 276 98 122 140 118 93 77 69 63 55 53 57 57 60 57 52 51 45
177 153 157 173 194 217 244 281 286 212 153 177 231 193 186 210 205 289 278 215 259 262 241 250 239 241 260 244 247 257 253 260 257 256 282 274 109 86 39 31 38 51 46 41 322 252 265 260 235 237 241 229 221 238 240 238 252 244 221 187 327 279 260 255 234 232 251 247 237 252 313 59 129 128 112 95 82 73 65 57 54 56 51 50 52 51 51 47
181 158 154 162 189 220 240 273 286 259 174 178 210 209 224 206 149 226 261 232 231 246 243 259 244 227 249 251 252 253 237 218 239 249 247 247 142 106 58 28 46 38 11 359 350 260 247 253 247 254 265 243 207 212 231 263 297 291 256 152 202 261 269 283 258 249 265 264 246 118 83 71 319 80 84 82 78 68 57 53 52 51 49 50 53 51 52 51
214 178 164 164 185 203 211 202 207 247 189 188 200 196 219 213 157 169 220 228 227 233 231 250 249 220 238 262 266 264 260 234 229 251 260 261 235 103 94 103 56 15 341 3 20 351 278 273 263 261 257 212 180 156 160 285 324 322 304 260 189 256 317 260 252 289 322 277 259 89 102 119 25 32 34 39 59 61 52 49 46 46 48 52 53 48 46 44
234 191 147 167 217 183 181 195 183 134 162 190 230 246 205 198 183 182 206 215 207 221 229 233 248 232 220 260 258 247 263 255 236 261 269 273 290 80 96 96 73 23 317 47 44 33 325 281 273 269 260 233 219 214 144 7 327 271 289 308 5 33 31 6 321 359 346 293 292 83 113 121 91 38 32 31 43 53 54 51 45 44 45 49 52 48 42 35
230 184 132 126 280 104 83 77 163 157 161 188 203 207 207 187 181 191 204 218 207 222 243 232 248 249 233 263 269 245 255 258 210 106 351 323 319 342 34 63 68 44 46 76 51 36 24 284 298 306 283 249 235 233 208 233 266 211 57 14 9 31 44 35 25 10 359 46 84 89 96 89 66 48 48 44 50 57 58 54 47 45 42 45 51 48 43 36
247 128 138 173 150 87 89 120 196 166 143 211 198 174 200 192 176 194 195 207 218 230 257 250 244 258 283 306 280 252 351 312 222 78 359 330 297 23 43 246 288 29 52 85 69 45 311 291 12 353 284 240 219 231 220 214 212 102 48 28 18 19 34 35 23 12 8 32 86 110 98 72 53 52 51 49 56 58 58 54 48 43 37 40 48 47 43 38
287 322 272 216 134 119 141 153 217 185 150 202 201 167 200 189 156 212 199 198 230 223 251 264 258 280 311 297 275 258 52 353 320 351 338 314 298 342 8 218 222 142 105 125 112 126 228 256 26 319 268 258 200 204 217 220 185 96 47 25 22 22 24 36 39 34 19 3 8 104 102 74 75 72 54 44 46 50 52 51 47 43 39 39 44 43 40 37
265 254 261 259 133 172 204 154 219 215 138 89 91 156 213 147 122 213 211 230 245 223 247 288 290 289 250 228 310 3 359 329 317 314 308 293 281 289 287 253 248 251 207 149 154 175 203 216 210 223 246 274 241 198 171 206 207 127 40 13 14 21 19 33 49 39 20 10 19 53 63 70 102 97 69 53 46 44 45 44 43 46 44 41 44 44 41 40
Height
812 812 811 810 809 808 806 805 804 803 802 801 800 799 798 797 796 796 794 793 792 790 789 788 787 786 785 784 783 781 779 778 776 774 772 768 766 767 767 767 767 768 769 770 770 771 770 770 768 767 766 764 764 758 757 758 755 759 765 769 765 756 749 740 737 743 743 743 747 746 745 748 746 740 732 730 733 735 740 739 738 736 733 735 738 744 748 753
812 812 810 810 808 807 806 805 804 803 802 800 799 799 797 797 796 795 794 792 791 790 788 787 786 786 785 784 783 781 780 778 775 771 767 766 766 767 766 766 767 767 769 769 769 767 767 767 765 765 764 762 761 757 759 758 756 762 763 765 760 748 743 740 739 743 745 747 750 748 745 747 746 742 735 735 737 737 744 744 742 745 741 741 743 746 750 754
812 811 810 809 808 807 806 804 804 802 801 800 798 798 797 796 795 794 793 792 791 789 788 787 786 785 784 783 782 782 780 778 772 765 762 764 765 765 765 765 766 767 768 767 767 766 764 763 763 764 763 762 758 758 761 758 758 759 759 764 753 740 741 742 743 746 747 749 751 749 746 747 742 739 737 739 740 736 746 750 747 750 746 746 749 748 752 754
811 811 810 809 808 807 805 804 803 802 801 799 798 797 796 796 795 794 793 792 790 789 787 786 785 784 784 783 782 782 782 777 766 759 761 763 764 763 764 764 765 766 767 767 766 765 763 761 762 762 762 762 757 757 761 757 758 757 757 759 746 741 747 744 745 748 748 750 751 750 749 748 740 738 738 740 742 736 743 750 747 748 746 746 749 749 752 754
811 810 809 808 807 806 805 804 802 801 800 799 798 796 796 795 794 793 792 791 790 788 787 786 785 784 783 782 782 782 783 776 760 757 762 762 762 762 762 763 765 766 767 768 766 764 763 761 761 763 763 761 758 760 761 753 754 756 754 752 743 745 751 745 746 750 750 751 751 751 751 747 740 740 739 739 743 737 735 739 736 738 742 745 749 750 751 754
810 809 809 808 806 806 804 803 802 801 800 798 797 796 795 794 793 793 792 791 789 788 787 785 785 784 783 782 782 783 782 771 757 759 761 760 762 761 761 763 764 767 768 768 764 763 763 761 763 765 764 760 759 761 759 750 752 759 754 748 746 747 749 747 747 750 750 753 753 752 748 745 746 744 738 738 740 733 728 730 730 733 739 744 748 750 751 753
809 809 808 807 806 805 803 802 801 800 799 798 797 795 794 793 792 792 791 790 788 787 786 785 785 784 782 781 780 781 777 764 755 760 760 760 761 760 762 763 765 767 768 766 763 763 762 762 763 762 763 761 758 757 755 750 752 759 756 748 746 746 748 748 747 749 750 753 751 748 747 747 751 745 738 739 735 728 727 728 729 732 738 745 750 751 751 752
808 808 807 806 805 804 803 801 800 799 798 797 796 794 793 792 791 791 790 789 788 786 785 784 784 783 782 781 778 774 768 759 756 759 759 760 761 760 763 764 766 767 766 764 761 761 760 762 762 758 762 759 754 755 753 754 755 757 756 749 746 747 748 747 748 750 749 750 748 747 750 749 746 742 740 740 732 727 728 728 729 732 737 745 751 751 750 751
807 807 806 806 804 803 802 800 799 798 797 796 795 793 791 790 790 789 789 788 787 786 784 783 783 782 782 781 778 770 760 756 757 759 759 760 761 761 764 764 766 766 764 762 759 760 759 760 759 755 759 755 752 754 753 759 758 752 752 749 748 748 747 747 748 749 749 748 747 749 751 746 740 740 743 737 729 727 729 730 730 733 738 744 750 750 749 751
806 805 805 805 803 802 800 799 798 797 796 795 793 792 790 789 788 787 787 786 785 784 783 783 782 781 782 780 776 768 758 756 759 759 760 761 761 762 764 764 765 764 762 760 759 759 757 757 754 751 756 755 753 755 753 757 753 747 750 749 748 748 745 747 748 748 748 746 746 750 751 744 737 743 746 733 726 729 730 732 731 733 738 743 748 748 748 750
805 804 804 804 802 801 799 798 797 796 795 793 792 790 789 788 787 785 785 784 783 782 782 781 781 781 781 778 773 764 756 757 759 759 761 762 762 763 763 763 763 762 760 759 759 758 756 755 753 753 758 756 754 755 752 751 749 747 751 752 750 749 747 747 749 748 748 746 743 745 748 743 739 744 741 727 726 730 732 733 732 734 736 739 743 746 748 750
804 803 803 803 801 800 798 797 795 794 793 792 791 788 787 786 784 783 782 781 781 780 780 780 780 780 780 776 769 760 756 758 759 759 761 761 762 762 761 762 762 761 759 758 759 758 758 757 756 758 758 755 755 757 753 746 748 750 752 757 753 748 749 746 745 745 746 745 739 742 751 748 744 745 734 724 727 730 732 734 733 735 736 738 742 746 749 749
803 802 802 801 800 798 797 795 794 793 792 791 789 786 785 784 782 781 780 779 779 779 779 779 779 780 780 772 760 757 758 758 759 760 761 760 761 761 761 762 761 761 760 758 758 758 760 759 759 757 754 756 755 753 751 746 750 753 752 756 754 751 748 739 739 742 744 743 737 746 761 750 738 736 727 722 728 731 734 736 734 737 741 742 744 747 749 748
802 801 801 800 799 798 796 794 793 792 791 789 787 785 783 782 781 779 778 778 777 777 777 778 778 779 779 767 755 757 758 758 760 759 759 760 760 761 761 761 761 761 761 760 759 760 761 760 759 757 754 755 751 749 753 751 753 755 753 753 754 755 744 731 735 742 744 742 737 749 761 746 726 723 721 722 727 732 736 735 732 735 743 748 747 748 747 745
801 800 800 799 798 797 795 793 792 790 789 787 785 783 782 781 779 778 778 777 776 776 776 777 777 777 773 762 754 756 757 758 759 757 758 758 758 759 760 761 761 761 761 761 760 761 761 760 760 760 756 753 752 756 758 755 752 752 758 757 750 751 742 732 735 739 743 741 737 747 756 742 722 715 719 724 728 731 735 735 732 731 738 746 749 749 746 743
800 800 799 798 797 795 794 792 791 789 787 785 783 782 780 779 778 778 777 776 776 775 776 777 775 774 769 758 753 755 756 756 755 756 757 757 757 756 757 760 760 760 761 760 760 760 760 760 759 757 754 754 758 760 757 756 753 749 755 756 745 744 742 737 737 735 737 742 740 744 749 739 724 720 724 727 728 731 734 735 733 732 732 736 742 744 744 743
800 799 797 797 796 794 793 791 789 788 785 783 781 780 778 778 777 777 776 776 775 774 775 773 770 772 765 754 754 753 751 752 752 754 755 756 757 755 756 758 758 759 759 759 760 759 758 759 759 757 755 755 755 756 761 764 758 748 749 750 742 738 738 737 738 735 735 743 742 741 745 737 726 725 728 728 728 730 734 736 733 732 732 733 736 740 742 744
799 798 796 796 794 793 791 789 788 786 784 782 780 779 777 776 776 776 776 775 775 775 775 772 770 770 759 751 751 747 746 750 750 752 754 755 756 755 755 756 756 757 759 760 760 758 759 758 757 759 758 757 754 754 764 762 750 745 745 749 746 739 739 738 736 735 736 744 744 742 745 739 729 725 727 728 728 729 731 734 733 730 731 733 734 739 743 745
798 796 795 794 793 792 790 788 787 784 782 780 779 778 777 776 776 776 775 773 771 768 766 765 765 761 753 748 747 745 746 749 750 751 752 753 755 755 754 754 754 757 760 761 760 757 758 758 759 763 760 756 753 749 752 746 736 738 738 742 744 738 738 735 731 734 737 744 745 743 744 739 732 728 725 724 726 730 729 730 731 730 734 735 731 733 738 741
796 795 794 793 791 790 788 786 785 783 781 779 778 778 775 771 769 768 769 767 762 755 750 752 753 749 747 744 743 746 748 750 750 748 749 751 752 753 753 753 754 757 758 757 757 754 754 761 762 760 754 748 747 744 743 738 734 742 742 740 740 736 736 729 726 733 737 745 746 740 741 738 734 730 724 721 723 730 731 730 730 730 734 735 734 733 731 736
795 794 792 791 790 788 786 785 782 781 780 779 779 776 768 764 763 764 764 758 751 748 747 746 746 745 744 743 742 745 747 748 747 745 748 750 750 753 753 753 757 760 755 750 752 751 754 763 757 749 745 740 740 741 743 743 744 751 750 746 744 740 737 727 727 734 737 747 747 737 739 739 733 731 726 721 723 728 730 730 730 730 730 732 739 739 729 731
794 793 791 790 788 786 784 782 781 780 779 778 778 772 765 765 767 767 765 758 747 744 744 743 744 744 742 744 745 746 746 747 746 744 745 748 748 751 751 752 756 755 750 747 751 757 761 761 750 741 739 738 740 742 745 749 753 756 752 752 751 741 737 731 730 735 737 746 747 737 739 738 730 728 727 723 722 723 726 727 726 728 729 728 733 734 732 734
793 791 789 788 785 784 782 780 779 778 778 777 774 770 766 768 769 768 767 762 749 740 740 741 743 743 743 744 744 747 748 746 745 743 742 746 747 746 747 750 752 749 748 748 751 760 762 751 740 737 736 741 748 748 751 754 756 757 753 754 752 741 739 738 734 738 739 743 745 740 741 739 732 729 726 723 719 717 719 722 722 722 725 726 723 726 736 740
791 789 788 786 784 783 779 778 777 776 776 775 772 769 769 770 770 769 766 760 749 738 736 738 739 739 740 740 741 746 748 743 741 739 739 744 744 743 744 744 748 747 744 744 747 753 750 734 729 734 737 744 752 753 755 759 757 754 752 752 748 740 737 733 733 739 740 742 742 744 750 743 732 733 728 719 717 716 716 718 721 719 719 721 720 721 730 733
789 788 786 784 783 780 779 778 774 774 774 772 770 769 770 771 769 770 768 759 749 739 737 738 738 737 737 740 742 741 743 741 738 734 733 739 740 741 742 739 743 747 741 741 746 749 742 729 731 740 741 746 753 753 753 757 757 752 748 746 743 741 738 732 734 742 749 751 738 738 759 751 727 725 724 715 714 715 715 717 720 719 717 717 718 719 721 726
788 787 785 784 782 779 778 775 773 774 772 769 769 769 771 772 770 771 769 759 746 736 739 740 737 738 738 740 740 739 744 740 732 729 730 735 735 735 741 739 739 742 737 737 742 743 737 729 735 745 745 748 752 751 748 750 757 754 742 737 738 740 742 740 742 747 755 755 734 731 756 756 731 720 717 713 713 714 716 719 718 717 717 716 716 717 717 721
787 786 784 783 781 779 777 773 773 773 769 768 769 770 772 771 771 772 768 763 747 732 735 737 735 738 736 735 736 740 746 736 728 730 729 733 733 731 739 738 737 739 731 735 745 742 734 732 738 744 747 750 751 749 744 743 755 753 735 733 740 741 744 744 744 748 747 744 737 732 744 755 744 725 713 712 716 718 720 721 719 718 718 717 717 715 714 715
786 784 783 782 780 780 778 776 775 771 768 770 770 772 772 770 773 770 769 769 748 726 729 733 732 735 733 733 734 736 737 732 733 733 727 732 733 732 741 736 734 737 729 738 750 739 733 739 742 745 749 750 746 742 737 739 750 744 731 737 742 741 743 740 741 745 741 744 749 736 734 752 750 726 712 711 717 724 722 719 720 722 721 721 721 719 716 714
784 783 782 780 778 778 777 777 775 771 771 772 772 773 771 772 772 767 768 766 741 724 727 731 733 734 731 733 734 733 732 730 733 731 727 734 732 731 739 733 731 734 729 736 742 733 731 734 735 741 747 745 740 735 733 739 746 737 732 740 741 741 742 740 743 743 741 752 757 741 733 748 748 727 717 717 719 723 723 721 723 725 726 727 728 726 725 719
783 782 781 779 778 777 776 776 774 772 772 772 773 772 771 773 769 767 772 760 734 726 727 728 732 731 729 733 733 733 733 730 730 730 730 734 733 732 733 729 729 731 730 734 737 731 729 730 731 737 740 737 734 733 732 736 739 736 739 743 743 744 741 742 742 741 751 760 753 740 732 740 748 733 720 725 724 720 726 732 732 729 729 730 731 731 731 723
781 780 780 779 778 777 776 773 771 772 773 773 773 772 772 769 763 764 764 743 727 729 728 728 729 726 727 729 728 729 731 728 728 733 735 734 736 737 736 735 736 737 735 736 738 733 730 735 738 736 733 732 733 733 732 731 733 737 743 746 748 748 745 748 748 749 767 767 745 732 725 732 748 737 722 730 728 720 726 732 733 732 730 731 732 731 729 722
779 779 778 777 777 777 774 771 770 772 773 773 772 770 769 767 763 758 746 734 734 733 727 728 728 726 726 725 724 725 726 727 727 730 733 735 737 738 739 738 738 745 744 738 741 739 731 730 732 733 732 730 736 739 736 735 737 739 742 747 755 758 761 767 763 760 768 760 738 727 726 733 739 727 720 729 728 724 727 727 729 733 731 731 731 728 725 724
777 776 775 775 774 774 772 770 772 773 772 773 772 766 765 768 761 746 733 731 736 731 725 729 728 726 728 727 723 721 721 724 724 726 727 728 733 734 734 730 727 738 741 736 742 746 741 732 726 732 734 729 734 740 742 742 741 741 742 748 756 763 774 782 773 763 761 751 732 724 733 742 736 721 716 723 727 727 729 728 730 732 732 733 731 727 727 729
775 773 772 772 772 771 771 771 772 772 772 773 769 764 769 771 754 738 732 729 730 730 729 731 730 729 730 725 718 716 722 721 717 723 725 725 732 733 731 728 724 727 731 736 741 742 748 745 731 730 731 729 731 731 731 732 734 736 732 735 745 750 763 775 770 764 762 751 734 731 742 746 739 729 720 721 725 726 728 730 732 733 732 733 732 731 733 734
771 770 769 769 769 769 769 771 771 772 772 770 765 762 768 765 744 734 734 729 729 733 730 729 732 732 729 723 717 716 723 725 719 721 722 723 728 729 726 726 723 722 728 738 738 734 743 741 725 722 722 722 729 726 720 725 732 730 724 732 741 736 742 756 757 755 762 761 746 738 739 731 728 727 722 722 726 727 730 731 732 736 734 735 738 740 741 740
769 768 768 767 767 767 767 770 770 771 771 766 763 761 756 748 737 733 734 733 735 736 734 733 732 732 729 722 722 721 720 726 726 722 721 719 719 720 718 717 717 719 723 729 731 732 742 738 719 718 721 716 721 722 718 727 733 727 728 735 730 721 728 747 753 747 755 769 755 737 733 728 727 729 723 724 727 727 731 732 734 738 737 739 742 744 747 747
769 767 766 764 765 766 766 768 769 771 769 763 762 756 743 736 736 737 737 738 738 737 738 737 729 730 730 720 720 721 720 725 727 725 725 721 717 714 712 711 711 714 716 720 724 725 736 739 721 718 726 718 714 717 716 718 723 727 733 728 719 721 726 738 755 756 759 768 752 734 735 730 733 742 736 732 732 729 731 734 738 740 739 742 744 745 749 750
768 765 764 762 764 765 765 767 769 768 766 761 760 753 742 738 738 739 740 740 740 738 740 737 730 730 730 724 718 714 718 726 726 728 730 726 723 716 711 712 710 709 710 715 722 722 729 741 728 716 724 719 711 720 724 717 715 721 724 716 721 739 741 741 757 764 766 767 753 740 734 726 735 749 747 743 742 736 735 739 742 743 741 744 746 747 749 749
768 764 763 762 764 764 765 767 767 764 762 759 756 750 743 740 740 741 742 742 742 741 740 736 733 733 731 727 721 714 720 726 723 729 733 728 730 726 716 717 716 713 711 712 719 722 727 742 737 718 716 719 719 727 733 726 718 718 718 717 722 732 738 740 744 748 754 760 756 746 738 738 747 750 745 747 748 743 743 746 745 744 744 747 750 749 748 750
764 761 760 761 764 764 765 766 765 762 759 753 746 742 740 740 741 742 743 743 742 741 741 737 735 737 733 729 727 723 725 726 722 730 731 724 732 736 725 720 721 719 715 713 716 719 726 741 743 725 715 722 728 727 726 724 722 725 728 729 729 726 729 734 735 737 745 753 753 748 749 752 751 749 747 747 747 745 745 748 746 745 747 751 753 752 752 754
760 759 760 762 763 763 764 765 761 755 750 746 741 740 742 744 742 742 743 744 743 740 740 741 739 738 737 734 731 727 728 728 723 726 728 725 734 741 734 727 724 721 720 721 722 724 731 739 740 736 732 732 728 716 712 713 713 720 726 727 727 726 730 742 747 741 740 751 752 749 762 765 749 747 751 746 746 748 746 748 750 749 752 755 756 757 758 760
759 759 759 761 762 762 763 762 755 748 745 745 744 742 746 749 745 743 743 744 745 741 740 743 741 740 740 737 733 728 731 732 724 723 728 732 737 738 735 732 727 723 725 728 726 722 729 734 737 741 739 732 724 712 708 709 708 710 714 714 716 718 726 742 753 746 737 743 742 736 755 766 749 744 749 746 750 752 748 750 752 753 755 757 759 761 761 763
758 757 757 760 761 759 762 760 750 746 747 747 746 744 747 749 746 745 743 743 744 743 743 743 742 742 740 738 737 734 734 735 731 728 729 737 743 737 731 730 729 729 732 737 736 730 732 738 740 741 735 726 723 718 711 710 714 717 714 711 711 714 719 725 738 750 746 741 746 751 760 763 750 743 746 750 755 756 755 756 756 756 758 759 762 764 764 765
754 756 755 759 760 758 761 757 745 742 747 749 748 746 747 747 746 746 743 742 743 743 745 744 741 742 739 738 741 738 737 741 738 732 731 736 741 736 730 730 731 735 742 747 748 744 741 741 742 749 752 744 739 739 732 722 720 722 718 715 715 713 717 722 730 751 755 740 746 765 770 764 753 744 745 754 761 762 763 764 762 763 763 763 765 766 767 769
751 755 754 755 757 757 757 752 742 740 747 752 751 748 749 748 749 749 745 744 744 742 746 744 739 741 740 738 742 739 736 742 742 737 735 737 739 736 733 732 733 737 742 744 745 748 750 748 746 752 758 759 758 760 760 749 735 725 718 724 732 725 723 729 732 745 753 740 737 752 765 766 757 747 750 760 765 768 770 770 770 770 768 768 769 770 773 774
749 753 755 755 754 753 751 748 746 744 747 753 754 751 751 750 749 750 747 747 746 743 746 745 739 742 744 741 745 743 735 737 741 739 738 741 743 741 737 736 738 739 742 743 741 745 749 747 746 747 748 755 762 760 761 761 753 742 733 737 746 739 730 736 739 741 744 740 739 750 766 774 766 757 760 765 768 773 776 776 776 775 773 773 773 775 776 776
750 749 753 755 754 753 751 746 745 746 746 749 753 752 752 751 750 751 750 749 747 744 746 746 741 745 749 747 750 751 742 738 740 740 741 740 737 738 738 738 741 743 744 743 742 746 754 751 746 749 746 746 752 751 749 754 756 758 758 751 745 740 738 743 748 747 747 746 749 756 766 777 779 776 776 776 776 779 781 781 782 780 777 777 777 778 777 777
751 746 745 748 750 750 749 744 743 747 749 750 752 754 753 752 753 754 752 748 746 745 748 750 746 744 746 749 752 755 751 748 747 747 747 743 739 744 746 740 742 746 744 746 748 753 765 765 754 751 748 742 743 744 745 751 754 760 766 758 746 743 747 750 752 753 753 755 761 762 763 774 784 787 789 788 786 786 787 787 786 785 783 782 782 782 782 782
749 745 744 747 748 747 748 748 746 748 751 752 754 756 754 753 754 753 750 750 750 748 748 754 753 744 741 744 749 754 757 757 756 754 752 750 748 752 754 748 745 744 744 750 755 754 763 766 757 755 758 750 744 742 744 754 761 758 757 756 751 747 750 755 759 758 755 758 766 768 771 782 791 793 793 793 792 792 792 792 791 791 790 789 788 788 788 789
748 746 747 747 748 748 749 751 749 748 752 755 755 755 753 753 754 751 748 752 758 755 750 753 754 747 745 748 749 753 755 755 757 758 755 756 753 751 758 760 753 749 751 755 758 758 761 761 759 765 769 757 747 745 746 754 764 766 764 764 761 756 755 760 767 767 764 766 768 767 775 789 796 795 795 795 795 796 796 796 797 797 796 795 795 795 794 794
749 748 748 745 747 751 751 750 747 746 751 753 752 753 753 751 753 753 750 749 753 755 752 752 752 750 752 755 753 752 753 752 754 755 752 754 752 749 753 755 751 754 758 758 758 760 760 758 760 768 771 763 753 750 750 752 759 769 777 779 776 772 769 770 774 778 779 778 773 767 774 788 795 797 801 802 801 801 801 802 802 802 802 801 801 800 800 799
751 750 747 745 750 753 749 748 748 746 749 752 752 754 754 751 751 754 756 752 748 749 751 752 754 755 757 759 757 755 755 753 753 752 749 749 748 746 746 746 745 749 753 754 757 757 756 758 760 762 769 772 762 752 754 759 763 775 789 793 788 785 781 777 780 785 785 784 782 780 783 790 793 797 804 809 809 809 808 808 807 807 807 807 806 805 804 804